Weather in Maloe Goloustnoe

Russia / Irkutsk Oblast     52°17′55″N   105°19′29″E
temp.,
°C
wind,
m/s
gust,
m/s
humid.,
%
clouds,
%
prec.,
mm/h
press.,
hPa
HPBL,
m
25 february, thu
thu2523:00−19ese119659 0.0 102720
02:00−19ese119432 0.0 102620
05:00−18ese1299100 0.0 102420
08:00−18ese1298100 0.0 102420
11:00−12ese239437 0.0 1022245
14:00−11ese349469 0.0 1018241
17:00−12ese3596100 0.0 1016230
20:00−13ese51595100 0.1 1014377
26 february, fri
fri2623:00−14ese3797100 0.1 1013226
02:00−15ssw2297100 0.1 101631
05:00−13w3996100 0.3 1019402
08:00−15w31096100 0.5 1021382
11:00−13wnw5892100 0.1 1022570
14:00−13wnw5890100 0.3 1021714
17:00−13wnw5891100 0.1 1022803
20:00−16wnw51194100 0.3 1025538
27 february, sat
sat2723:00−17wnw41096100 0.3 1028479
02:00−18nw51194100 0.5 1030658
05:00−23w2210098 0.1 103321
08:00−26w2310088 0.1 103642
11:00−21wnw259697 0.1 1037394
14:00−18nw348596 0.1 1036830
17:00−18nw2384100 0.0 1037786
20:00−26nnw009574 0.0 104020
28 february, sun
sun2823:00−26nne019379 0.0 104219
02:00−26ene119089 0.0 104220
05:00−27ese118994 0.0 104319
08:00−27se119354 0.0 104419
11:00−18se22830 0.0 1042397
14:00−14sse12761 0.0 1040854
17:00−15sse127879 0.0 1039602
20:00−23se119541 0.0 104120
1 march, mon
mon123:00−24se11790 0.0 104020
02:00−24se12830 0.0 103920
05:00−24se12900 0.0 103620
08:00−25se22930 0.0 103520
11:00−16se23860 0.0 1030218
14:00−11se23791 0.0 1025342
17:00−12se238755 0.0 1023234
20:00−19se229233 0.0 102320